sat.trackr.live / text

‹ back to catalog

STARLINK-35063

NORAD 65528 · 2025-200J

PAYLOAD ACTIVE UNKNOWN

§ Identity

Operator
Country
US
Launch date
2025-09-06
Launch site
AFWTR
Launch vehicle
Mass (kg)
RCS (m²)

Purposes: comms

External: N2YO · Heavens-Above · Gunter

§ Orbital elements

Epoch: 2026-05-25T04:05:34.808064Z

Period
95.64 min
Inclination
97.4466°
Eccentricity
0.0002533
Mean motion
15.05648880 rev/d
Perigee alt
547.8 km
Apogee alt
551.3 km
Semi-major
6,927.7 km
B*
2.2317e-3
RAAN
214.8916°
Arg perigee
148.4423°
Mean anomaly
211.6956°
Rev number
4,064

§ Raw data

STARLINK-350631 65528U 25200J   26145.17054176  .00032288  00000+0  22317-2 0  99932 65528  97.4466 214.8916 0002533 148.4423 211.6956 15.05648880 40643

JSON: /api/v1/satellites/65528 · /tle

For live sub-satellite position, see the globe view (requires WebGL).

§ Visibility from observer

Set your observer location to see the next 7 days of passes ≥ 10°. The values pass through the URL so the page stays shareable.

No JS? Fill the form by hand. The geolocation button needs JavaScript.